Time,TemperatureF,DewpointF,PressureIn,WindDirection,WindDirectionDegrees,WindSpeedMPH,WindSpeedGustMPH,Humidity,HourlyPrecipIn,Conditions,Clouds,dailyrainin,SolarRadiationWatts/m^2,SoftwareType,DateUTC
2013-07-20 00:00:00,75.2,73.0,30.05,SSW,203,0.0,0.0,93,0.00,,,0.00,0,Wunderground v.1.15,2013-07-20 04:00:00,
2013-07-20 00:30:00,75.2,73.4,30.05,SSW,211,0.0,2.0,94,0.00,,,0.00,0,Wunderground v.1.15,2013-07-20 04:30:00,
2013-07-20 01:00:00,75.1,73.3,30.04,WSW,241,0.0,0.0,94,0.00,,,0.00,0,Wunderground v.1.15,2013-07-20 05:00:00,
2013-07-20 01:30:00,74.9,73.1,30.04,WSW,241,0.0,0.0,94,0.00,,,0.00,0,Wunderground v.1.15,2013-07-20 05:30:00,
2013-07-20 02:00:00,75.1,73.3,30.03,SW,217,1.0,1.0,94,0.00,,,0.00,0,Wunderground v.1.15,2013-07-20 06:00:00,
2013-07-20 02:30:00,75.1,73.3,30.02,SW,225,0.0,0.0,94,0.00,,,0.00,0,Wunderground v.1.15,2013-07-20 06:30:00,
2013-07-20 03:00:00,74.8,73.0,30.02,SW,225,0.0,0.0,94,0.00,,,0.00,0,Wunderground v.1.15,2013-07-20 07:00:00,
2013-07-20 03:30:00,74.4,72.9,30.02,WSW,254,0.0,3.0,95,0.00,,,0.00,0,Wunderground v.1.15,2013-07-20 07:30:00,
2013-07-20 04:00:00,74.4,72.9,30.02,SW,225,0.0,0.0,95,0.00,,,0.00,0,Wunderground v.1.15,2013-07-20 08:00:00,
2013-07-20 04:30:00,73.8,72.3,30.03,SW,225,0.0,0.0,95,0.00,,,0.00,0,Wunderground v.1.15,2013-07-20 08:30:00,
2013-07-20 05:00:00,73.2,71.7,30.03,SW,225,0.0,0.0,95,0.00,,,0.00,0,Wunderground v.1.15,2013-07-20 09:00:00,
2013-07-20 05:30:00,73.2,72.0,30.03,SW,225,0.0,0.0,96,0.00,,,0.00,0,Wunderground v.1.15,2013-07-20 09:30:00,
2013-07-20 06:00:00,73.2,72.0,30.03,SW,225,0.0,0.0,96,0.00,,,0.00,0,Wunderground v.1.15,2013-07-20 10:00:00,
2013-07-20 06:30:00,73.4,72.2,30.02,SW,230,0.0,0.0,96,0.00,,,0.00,7,Wunderground v.1.15,2013-07-20 10:30:00,
2013-07-20 07:00:00,74.2,73.0,30.03,WSW,240,0.0,0.0,96,0.00,,,0.00,19,Wunderground v.1.15,2013-07-20 11:00:00,
2013-07-20 07:30:00,75.1,73.9,30.03,SW,224,1.0,1.0,96,0.00,,,0.00,60,Wunderground v.1.15,2013-07-20 11:30:00,
2013-07-20 08:00:00,76.5,74.6,30.05,SW,229,2.0,4.0,94,0.00,,,0.00,53,Wunderground v.1.15,2013-07-20 12:00:00,
2013-07-20 08:30:00,80.1,76.6,30.05,SW,229,2.0,3.0,89,0.00,,,0.00,343,Wunderground v.1.15,2013-07-20 12:30:00,
2013-07-20 09:00:00,82.4,76.7,30.05,NW,309,2.0,3.0,83,0.00,,,0.00,483,Wunderground v.1.15,2013-07-20 13:00:00,
2013-07-20 09:30:00,84.0,76.8,30.05,WSW,258,3.0,3.0,79,0.00,,,0.00,561,Wunderground v.1.15,2013-07-20 13:30:00,
2013-07-20 10:00:00,85.4,76.2,30.05,NW,309,3.0,4.0,74,0.00,,,0.00,501,Wunderground v.1.15,2013-07-20 14:00:00,
2013-07-20 10:30:00,84.1,76.1,30.05,WNW,294,2.0,4.0,77,0.00,,,0.00,844,Wunderground v.1.15,2013-07-20 14:30:00,
2013-07-20 11:00:00,87.0,76.5,30.05,SW,221,3.0,4.0,71,0.00,,,0.00,867,Wunderground v.1.15,2013-07-20 15:00:00,
2013-07-20 11:30:00,86.8,75.4,30.04,SSW,213,3.0,3.0,69,0.00,,,0.00,861,Wunderground v.1.15,2013-07-20 15:30:00,
2013-07-20 12:00:00,88.2,76.7,30.04,West,261,2.0,2.0,69,0.00,,,0.00,185,Wunderground v.1.15,2013-07-20 16:00:00,
2013-07-20 12:30:00,86.5,76.8,30.03,WSW,240,2.0,3.0,73,0.00,,,0.00,163,Wunderground v.1.15,2013-07-20 16:30:00,
2013-07-20 13:00:00,88.6,76.7,30.02,WNW,290,3.0,3.0,68,0.00,,,0.00,1174,Wunderground v.1.15,2013-07-20 17:00:00,
2013-07-20 13:30:00,87.2,77.5,30.01,WSW,251,1.0,1.0,73,0.00,,,0.00,206,Wunderground v.1.15,2013-07-20 17:30:00,
2013-07-20 14:00:00,85.0,75.4,30.00,NNW,333,5.0,7.0,73,0.00,,,0.00,700,Wunderground v.1.15,2013-07-20 18:00:00,
2013-07-20 14:30:00,84.7,75.9,29.99,West,270,2.0,4.0,75,0.00,,,0.00,800,Wunderground v.1.15,2013-07-20 18:30:00,
2013-07-20 15:00:00,84.1,76.9,29.99,SW,215,1.0,3.0,79,0.00,,,0.00,893,Wunderground v.1.15,2013-07-20 19:00:00,
2013-07-20 15:30:00,87.0,75.2,29.98,West,265,3.0,3.0,68,0.00,,,0.00,824,Wunderground v.1.15,2013-07-20 19:30:00,
2013-07-20 16:30:00,86.2,75.3,29.96,West,263,4.0,4.0,70,0.00,,,0.00,666,Wunderground v.1.15,2013-07-20 20:30:00,
2013-07-20 17:00:00,85.9,75.0,29.95,WSW,252,4.0,4.0,70,0.00,,,0.00,577,Wunderground v.1.15,2013-07-20 21:00:00,
2013-07-20 17:30:00,85.0,74.5,29.95,SW,227,5.0,5.0,71,0.00,,,0.00,135,Wunderground v.1.15,2013-07-20 21:30:00,
2013-07-20 18:30:00,83.3,74.1,29.97,WSW,243,4.0,4.0,74,0.00,,,0.00,63,Wunderground v.1.15,2013-07-20 22:30:00,
2013-07-20 19:30:00,80.5,73.4,29.97,SSW,207,3.0,3.0,79,0.00,,,0.00,25,Wunderground v.1.15,2013-07-20 23:30:00,
2013-07-20 20:00:00,79.3,73.0,29.97,West,273,3.0,3.0,81,0.00,,,0.00,14,Wunderground v.1.15,2013-07-21 00:00:00,
2013-07-20 20:30:00,78.3,72.7,29.99,SSW,211,2.0,4.0,83,0.00,,,0.00,0,Wunderground v.1.15,2013-07-21 00:30:00,
2013-07-20 21:00:00,77.6,72.7,30.00,SW,227,1.0,2.0,85,0.00,,,0.00,0,Wunderground v.1.15,2013-07-21 01:00:00,
2013-07-20 21:30:00,77.0,72.8,30.00,SW,221,1.0,2.0,87,0.00,,,0.00,0,Wunderground v.1.15,2013-07-21 01:30:00,
2013-07-20 22:30:00,76.2,72.0,30.01,SSW,198,1.0,1.0,87,0.00,,,0.00,0,Wunderground v.1.15,2013-07-21 02:30:00,
2013-07-20 23:00:00,75.6,71.8,30.01,South,182,1.0,1.0,88,0.00,,,0.00,0,Wunderground v.1.15,2013-07-21 03:00:00,
2013-07-20 23:30:00,75.3,71.8,30.01,SW,235,0.0,0.0,89,0.00,,,0.00,0,Wunderground v.1.15,2013-07-21 03:30:00,